Find Okean-O

NORAD ID: 25860 Int'l Des: 1999-039 Owner: RGMS/YUZHUA Country: RU operational
LEOCIRCULARRETROGRADESSO

リアルタイム位置

3D地球を読み込み中...

Okean-Oについて

説明を読み込み中...

次回通過

Passes for default location (London). Set your location on the main map for personalized predictions.

高度履歴

Loading altitude history...

軌道要素

1 25860U 99039A 26106.90902685 .00000347 00000-0 52331-4 0 9997
2 25860 97.9369 166.3970 0001267 115.5411 244.5933 14.80393543440044
Epoch: Apr 16, 2026 • Age: 11 hours

現在のステータス

高度 640.1 km
速度 7.54 km/s
衛星直下点 -29.92°S, 169.62°W
打ち上げ日 Jul 17, 1999
運用期間 26.7 years
タイプ other

技術仕様

分類 Payload
質量 6300.00 kg
乾燥質量 6000.00 kg
総質量 6300.00 kg
長さ 10.60 m
直径 1.80 m
スパン 10.60 m
形状 Cyl + 2 Pan
製造者 YUZHUA
バスタイプ Okean-O
フェーズステータス Unknown Transfer Status
所有者/国 RGMS/YUZHUA/RU

Most Searched